Location: Azul
(36.7830°S, 59.8500°W)
Time: 20:09:30
(UTC-03:00)

ISS - Pass Details

Date: 16 April 2018
Orbit: 402 x 407 km, 51.6° (Epoch: 27 April)

Event Time Altitude Azimuth Distance (km) Brightness Sun altitude
Exits shadow 06:28:12 13° 223° (SW) 1,312 -1.7 -12.3°
Maximum altitude 06:31:05 65° 141° (SE) 456 -3.5 -11.7°
Drops below altitude 10° 06:34:21 10° 58° (ENE) 1,466 0.1 -11.0°
Sets 06:36:26 0° 55° (NE) 2,320 1.1 -10.6°
